Regional Weather Roundup
Issued by NWS Green Bay, WI

Home | Current Version | Previous Version | Text Only | Print | Product List | Glossary On
Versions: 1 2 3 4 5 6 7 8 9 10 11 12 13 14 15 16 17 18 19 20 21 22 23 24 25 26 27 28 29 30 31 32 33 34 35 36 37 38 39 40 41 42 43 44 45 46 47 48 49 50
032
ASUS43 KGRB 281311
RWRGRB

NORTH-CENTRAL AND NORTHEAST WISCONSIN REGIONAL WEATHER ROUNDUP
NATIONAL WEATHER SERVICE GREEN BAY WI
700 AM CST TUE FEB 28 2017

WIZ005-009-010>012-018-019-281400-
NORTH CENTRAL WISCONSIN

CITY           SKY/WX    TMP DP  RH WIND       PRES   REMARKS
IRONWOOD       LGT RAIN  33  31  92 CALM      29.82R
MANITOWISH WTR CLOUDY    32  31  96 CALM      29.78S
ARBOR VITAE    CLOUDY    34  31  89 SE5         N/A
EAGLE RIVER    MIX PCPN  33  30  91 SE3       29.79S
LAND O LAKES   CLOUDY    32  30  92 CALM      29.81S
RHINELANDER    CLOUDY    35  32  88 E3        29.79F FOG
PHILLIPS       CLOUDY    31  30  94 CALM      29.76F
ANTIGO         CLOUDY    33  33  98 SE6       29.81S FOG
TOMAHAWK       CLOUDY    32  29  90 CALM      29.79S FOG
MERRILL        NOT AVBL
$$

WIZ013-073-281400-
NORTHEAST WISCONSIN

CITY           SKY/WX    TMP DP  RH WIND       PRES   REMARKS
IRON MOUNTAIN  MIX PCPN  28  27  93 CALM      29.82F FOG
MARINETTE      LGT RAIN  37  36  96 SE3       29.86F FOG
OCONTO         CLOUDY    36  35  98 CALM      29.84F
$$

WIZ017-030-035>037-045-281400-
CENTRAL WISCONSIN

CITY           SKY/WX    TMP DP  RH WIND       PRES   REMARKS
MEDFORD        CLOUDY    33  31  92 E6        29.75F
WAUSAU         CLOUDY    34  32  92 E8        29.76F FOG
MOSINEE        CLOUDY    36  36 100 E5        29.77F FOG
MARSHFIELD     CLOUDY    37  35  92 SE7       29.76R FOG
WISC RAPIDS    CLOUDY    38  38 100 E6        29.78S FOG
STEVENS POINT  DRIZZLE   35  35 100 E7        29.79S
WAUPACA        CLOUDY    39  38  96 NE5       29.79F FOG
SHAWANO        DRIZZLE   37  35  94 NE3       29.82F
CLINTONVILLE   FOG       34  34 100 E3        29.81F VSB 1/2
WAUTOMA        FOG       38  37  97 E3        29.79S VSB 3/4
$$

WIZ038-039-048-051-281400-
FOX VALLEY

CITY           SKY/WX    TMP DP  RH WIND       PRES   REMARKS
NWS GREEN BAY  CLOUDY    39  39 100 SE9       29.82F FOG
APPLETON       CLOUDY    37  37 100 SE7       29.79F FOG
OSHKOSH        FOG       37  37 100 E7        29.78F VSB 3/4
FOND DU LAC    CLOUDY    40  37  89 SE9       29.78F FOG
$$

WIZ022-050-052-281400-
EAST CENTRAL WISCONSIN

CITY           SKY/WX    TMP DP  RH WIND       PRES   REMARKS
EPHRAIM        DRIZZLE   38  38 100 S6        29.85F
WASHINGTON ISL CLOUDY    37  35  95 S3        29.87F FOG
STURGEON BAY   LGT RAIN  40  38  93 S10         N/A
MANITOWOC      CLOUDY    39  37  92 SE8       29.84F FOG
SHEBOYGAN      LGT RAIN  39  38  96 SE7       29.82F FOG
$$

LMZ563-521-522-541>543-281400-
LAKESHORE

STATION/POSITION TIME  TEMP    WIND        PRES    VSBY  WAVE
                       AIR SEA DIR/SP/G                  HT/PER
                 (UTC) (F)     (DEG/KT/KT) (MB)    (MI)  (FT/S)
SHEBOYGAN LKSHOR 1300   39     130/ 14/ 16 1009.8F
KEWAUNEE LKSHORE 1248   38     160/ 10/ 11 1010.5F
NORTHPORT PIER   1240   38     150/  5/  9 1011.9S
SISTER BAY LKSHO 1235   39     160/  7/ 10   N/A
CHAMBERS ISLAND  1240   39     160/  4/  7 1011.2S
MENOMINEE LKSHOR 1248   36     170/  4/  7 1010.4F
$$




USA.gov is the U.S. government's official web portal to all federal, state and local government web resources and services.